Regional Weather Roundup
Issued by NWS

Home | Current Version | Previous Version | Graphics & Text | Print | Product List | Glossary On
Versions: 1 2 3 4 5 6 7 8 9 10 11 12 13 14 15 16 17 18 19 20 21 22 23 24 25 26 27 28 29 30 31 32 33 34 35 36 37 38 39 40 41 42 43 44 45 46 47 48 49 50
000
ASUS45 KTFX 211704
RWRMT
MONTANA HOURLY WEATHER ROUNDUP
NATIONAL WEATHER SERVICE GREAT FALLS MT
1104 AM MDT TUE OCT 21 2014

NOTE: "FAIR" INDICATES FEW OR NO CLOUDS BELOW 12000 FEET WITH NO
SIGNIFICANT WEATHER AND/OR OBSTRUCTIONS TO VISIBILITY.

* THESE STATIONS ARE NOT UNDER NWS QUALITY CONTROL. THEY DO NOT
   REPORT WEATHER SUCH AS PRECIPITATION OR FOG.

MTZ001>007-043-211800-
WEST OF THE DIVIDE
CITY           SKY/WX    TMP DP  RH WIND       PRES   REMARKS
KALISPELL      LGT RAIN  48  46  93 SE5       29.80F
MISSOULA       CLOUDY    48  46  93 W3        29.86R
BUTTE          CLOUDY    48  37  66 VRB5      29.75R
MULLAN PASS    LGT RAIN  36  36 100 VRB3      29.88R VSB M1/4
* ESSEX        N/A       41  40  96 N/A        N/A
* LINCOLN      N/A       46  42  86 SW5G12     N/A
* POLSON       N/A       46  46 100 E1         N/A
* RONAN APT    CLOUDY    48  46  93 N/A        N/A
* SEELEY LAKE  N/A       44  42  93 NE3G10     N/A
* THOMP F APT  CLOUDY    39  38  96 S11G23     N/A   WCI  32
$$

MTZ008-052>055-211800-
SOUTHWEST MONTANA
CITY           SKY/WX    TMP DP  RH WIND       PRES   REMARKS
BOZEMAN        PTSUNNY   61  43  52 S9        29.71F
DILLON         LGT RAIN  57  39  51 S20G35    29.72F
W YELLOWSTONE  FOG       39  39 100 SW15G28   29.93S WCI  31
* THREE FORKS  PTCLDY    64  52  65 S17G25     N/A
* BOULDER HILL N/A       55  35  47 S10        N/A
* MONIDA PASS  N/A       39  39 100 S22G27     N/A   WCI  29
* RAYNOLDS PAS N/A       46  25  44 SE17G26    N/A
* WHITEHALL    N/A       56  41  57 NE3        N/A
* WISE RIVER   N/A       46  37  71 W4G11      N/A
$$

MTZ009>010-012-014-046-048-049-054-211800-
EAST SLOPES AND CENTRAL MONTANA
CITY           SKY/WX    TMP DP  RH WIND       PRES   REMARKS
CUT BANK       LGT RAIN  48  46  93 W24G33    29.74R
GREAT FALLS    CLOUDY    59  37  44 NE5       29.66F
HELENA         PTSUNNY   57  39  51 W17G28    29.70R
MALMSTROM AFB  LGT RAIN  55  43  64 VRB5      29.68S
* CONRAD       CLOUDY    55  45  69 NW16G25    N/A
* DEARBORN     N/A       54  40  59 SE2        N/A
* EAST GLACIER N/A       44  41  89 E4         N/A
* MONARCH      N/A       56  35  45 SW17G26    N/A
* PENDROY      N/A       49  44  83 NW20G27    N/A
* ROGERS PASS  N/A       45  38  77 SE8G13     N/A
* SAINT MARY   N/A       46  41  83 S5G15      N/A
* SWEET GRASS  N/A       52  41  66 NW6        N/A
$$

MTZ011-013-016-021-035-040-045-047-050-051-211800-
NORTH CENTRAL MONTANA
CITY           SKY/WX    TMP DP  RH WIND       PRES   REMARKS
HAVRE          PTSUNNY   54  39  57 SW10      29.64R
LEWISTOWN      PTSUNNY   70  37  30 S16G22    29.68F
* CHINOOK      PTCLDY    54  43  67 W5        29.62R
* FORT BENTON  CLOUDY    52  43  72 S5        29.68R
* CHESTER      N/A       46  32  58 S3G13      N/A
* DENTON       N/A       60  44  56 W3G12      N/A
* GEYSER       N/A       60  38  44 NE5        N/A
* JUDITH GAP   N/A       54  43  67 S9         N/A
* LOMA         N/A       53  39  59 NE2        N/A
$$

MTZ017>020-022>027-061-062-211800-
NORTHEAST MONTANA
CITY           SKY/WX    TMP DP  RH WIND       PRES   REMARKS
GLASGOW        PTCLDY    61  43  52 SE15      29.63F
GLENDIVE       SUNNY     55  43  64 SE5       29.69F
JORDAN         PTCLDY    64  41  43 E5        29.64F
SIDNEY         SUNNY     55  43  64 CALM      29.70F
WOLF POINT     SUNNY     57  45  64 E7        29.66F
* BEAVER HILL  N/A       68  42  39 S9         N/A
* CIRCLE       N/A       65  50  58 S4         N/A
* LINDSAY DVD  N/A       61  47  60 SE7        N/A
* NAVAJO       N/A       58  44  60 SE3        N/A
$$

MTZ028>042-056>058-211800-
SOUTHCENTRAL AND SOUTHEAST MONTANA
CITY           SKY/WX    TMP DP  RH WIND       PRES   REMARKS
BAKER          SUNNY     66  45  47 S8        29.70F
BILLINGS       PTSUNNY   61  34  36 SW10      29.70F
LIVINGSTON     PTSUNNY   64  39  40 W10G21    29.75F
MILES CITY     SUNNY     55  39  55 SW5       29.68F
* LAUREL APT   PTSUNNY   61  32  34 N/A        N/A
* ROUNDUP APT  PTCLDY    57  34  42 S7         N/A
* ALZADA       N/A       72  41  33 S15G20     N/A
* HYSHAM       N/A       61  31  32 W10        N/A
* LAME DEER    N/A       73  33  23 SW7        N/A
* REED POINT   N/A       43  37  79 N/A        N/A
* ROSCOE HILL  N/A       63  29  28 S6G18      N/A
$$

REGIONAL REPORTS...DAKOTAS
CITY           SKY/WX    TMP DP  RH WIND       PRES   REMARKS
WILLISTON      SUNNY     57  39  51 SE6       29.69F
DICKINSON      SUNNY     63  45  52 S12       29.70F
BEACH          N/A       61  45  56 SE7       29.70F
CROSBY         SUNNY     63  39  41 S5        29.70F
TIOGA          SUNNY     59  39  48 SE10      29.73F
BISMARCK       SUNNY     64  41  43 SE15      29.78F
GRAND FORKS    SUNNY     55  43  64 S22G29    29.97F
FARGO          SUNNY     59  43  56 SE28G35   29.98F
BUFFALO SD     SUNNY     75  43  32 S12G24    29.67F
RAPID CITY     SUNNY     72  45  38 SE9       29.81F
$$

REGIONAL REPORTS...WYOMING/IDAHO/WASHINGTON
CITY           SKY/WX    TMP DP  RH WIND       PRES   REMARKS
GILLETTE       SUNNY     70  37  30 SW24G32   29.79F
SHERIDAN       SUNNY     72  36  27 N6        29.73F
CODY           CLOUDY   N/A N/A N/A W8        29.80S
YELLOWSTONE LA PTSUNNY   43  39  86 VRB3      30.00R
SALMON         CLOUDY    46  43  89 NE6       29.88R
MULLAN PASS    LGT RAIN  36  36 100 VRB3      29.88S VSB M1/4
SAND POINT     CLOUDY    50  45  83 SW6       29.88R
SPOKANE        CLOUDY    48  43  83 SW12      29.90R

$$




USA.gov is the U.S. government's official web portal to all federal, state and local government web resources and services.